����,���ϕ���(m/s),���ϕ���,�ő�u�ԕ���(m/s),�ő啗��������,�C��(��),���x(%),10���Ԉړ��ώZ�J��(mm),1���Ԉړ��ώZ�J��(mm),���J��(mm),�݌v�J��(mm),����(���ώZ)(MJ/m2),����(���ώZ)(min),���n�C��(hPa),�C�ʋC��(hPa)
2022-10-31T00:00:00+09:00,0.7,�k�k��,2.3,�k�k��,10.1,89.3,0,0,0,0,9.13,229,1011.4,1025.6
2022-10-31T00:01:00+09:00,0.7,�k�k��,2,�k�k��,10.1,89,0,0,0,0,0,0,1011.3,1025.5
2022-10-31T00:02:00+09:00,0.7,�k�k��,2,�k�k��,10.3,89.6,0,0,0,0,0,0,1011.4,1025.6
2022-10-31T00:03:00+09:00,0.7,�k�k��,2,�k�k��,10.1,88.9,0,0,0,0,0,0,1011.4,1025.6
2022-10-31T00:04:00+09:00,0.7,�k�k��,2,�k�k��,10,88.6,0,0,0,0,0,0,1011.3,1025.5
2022-10-31T00:05:00+09:00,0.7,�k�k��,2,�k�k��,9.9,88.3,0,0,0,0,0,0,1011.3,1025.5
2022-10-31T00:06:00+09:00,0.6,�k�k��,2,�k�k��,10,88.6,0,0,0,0,0,0,1011.3,1025.5
2022-10-31T00:07:00+09:00,0.4,�k�k��,1.7,�k�k��,10,89,0,0,0,0,0,0,1011.3,1025.5
2022-10-31T00:08:00+09:00,0.4,�k�k��,1.2,�k��,10.1,89.4,0,0,0,0,0,0,1011.3,1025.5
2022-10-31T00:09:00+09:00,0.4,�k�k��,1.2,�k��,10.1,89.3,0,0,0,0,0,0,1011.3,1025.5
2022-10-31T00:10:00+09:00,0.4,�k�k��,1.2,�k��,10.1,89.3,0,0,0,0,0,0,1011.2,1025.4
2022-10-31T00:11:00+09:00,0.4,�k�k��,1.2,�쐼,9.7,88.5,0,0,0,0,0,0,1011.2,1025.4
2022-10-31T00:12:00+09:00,0.3,�k�k��,1.4,��쐼,9.5,88.3,0,0,0,0,0,0,1011.2,1025.4
2022-10-31T00:13:00+09:00,0.4,�k�k��,1.5,��쐼,9.6,88.9,0,0,0,0,0,0,1011.2,1025.4
2022-10-31T00:14:00+09:00,0.4,��쐼,1.5,��쐼,9.7,89.6,0,0,0,0,0,0,1011.2,1025.4
2022-10-31T00:15:00+09:00,0.4,�쐼,1.5,��쐼,9.7,90,0,0,0,0,0,0,1011.3,1025.5
2022-10-31T00:16:00+09:00,0.4,�쐼,1.5,��쐼,9.9,90.7,0,0,0,0,0,0,1011.2,1025.4
2022-10-31T00:17:00+09:00,0.4,���쐼,1.5,��쐼,10,90.9,0,0,0,0,0,0,1011.2,1025.4
2022-10-31T00:18:00+09:00,0.4,���쐼,1.5,��쐼,10.1,91.2,0,0,0,0,0,0,1011.2,1025.4
2022-10-31T00:19:00+09:00,0.4,��,1.5,��쐼,10,90.8,0,0,0,0,0,0,1011.2,1025.4
2022-10-31T00:20:00+09:00,0.4,���k��,1.5,��쐼,10.1,90.4,0,0,0,0,0,0,1011.2,1025.4
2022-10-31T00:21:00+09:00,0.4,�k��,1.5,��쐼,10.1,90.2,0,0,0,0,0,0,1011.2,1025.4
2022-10-31T00:22:00+09:00,0.4,�k��,1.5,��쐼,10.1,90.1,0,0,0,0,0,0,1011.2,1025.4
2022-10-31T00:23:00+09:00,0.4,�k�k��,1.2,�k��,10.1,89.9,0,0,0,0,0,0,1011.2,1025.4
2022-10-31T00:24:00+09:00,0.4,�k�k��,1.3,�k��,10,89.3,0,0,0,0,0,0,1011.2,1025.4
2022-10-31T00:25:00+09:00,0.5,�k�k��,1.3,�k��,9.9,89,0,0,0,0,0,0,1011.2,1025.4
2022-10-31T00:26:00+09:00,0.6,�k�k��,1.3,�k��,9.7,88.5,0,0,0,0,0,0,1011.2,1025.4
2022-10-31T00:27:00+09:00,0.7,�k��,1.3,�k��,9.8,88.8,0,0,0,0,0,0,1011.2,1025.4
2022-10-31T00:28:00+09:00,0.7,�k��,1.3,�k��,9.7,88.9,0,0,0,0,0,0,1011.2,1025.4
2022-10-31T00:29:00+09:00,0.7,�k��,1.3,�k��,9.7,89,0,0,0,0,0,0,1011.1,1025.3
2022-10-31T00:30:00+09:00,0.8,�k��,1.3,�k��,9.8,89.2,0,0,0,0,0,0,1011.2,1025.4
2022-10-31T00:31:00+09:00,0.8,�k��,1.3,�k��,9.8,89.5,0,0,0,0,0,0,1011.2,1025.4
2022-10-31T00:32:00+09:00,0.8,�k��,1.5,�k��,9.8,89.5,0,0,0,0,0,0,1011.2,1025.4
2022-10-31T00:33:00+09:00,0.9,�k��,1.7,���k��,9.9,89.9,0,0,0,0,0,0,1011.2,1025.4
2022-10-31T00:34:00+09:00,0.9,�k��,1.7,���k��,9.7,89.6,0,0,0,0,0,0,1011.3,1025.5
2022-10-31T00:35:00+09:00,0.9,�k��,2,���k��,9.7,89.3,0,0,0,0,0,0,1011.3,1025.5
2022-10-31T00:36:00+09:00,1,�k��,2,���k��,9.8,89.5,0,0,0,0,0,0,1011.3,1025.5
2022-10-31T00:37:00+09:00,1,�k��,2,���k��,9.7,89.4,0,0,0,0,0,0,1011.3,1025.5
2022-10-31T00:38:00+09:00,1,�k��,2,���k��,9.7,89.5,0,0,0,0,0,0,1011.3,1025.5
2022-10-31T00:39:00+09:00,1.1,�k��,2,���k��,9.7,89.5,0,0,0,0,0,0,1011.3,1025.5
2022-10-31T00:40:00+09:00,1.1,�k��,2,���k��,9.6,89.2,0,0,0,0,0,0,1011.3,1025.5
2022-10-31T00:41:00+09:00,1.1,�k��,2,���k��,9.3,88.7,0,0,0,0,0,0,1011.3,1025.6
2022-10-31T00:42:00+09:00,1.1,���k��,2,���k��,9.4,88.9,0,0,0,0,0,0,1011.3,1025.6
2022-10-31T00:43:00+09:00,1,�k��,2,���k��,9.4,89.3,0,0,0,0,0,0,1011.3,1025.6
2022-10-31T00:44:00+09:00,1,�k��,2,���k��,9.6,90.1,0,0,0,0,0,0,1011.3,1025.5
2022-10-31T00:45:00+09:00,1,�k��,2,�k,9.7,90.7,0,0,0,0,0,0,1011.3,1025.5
2022-10-31T00:46:00+09:00,0.9,�k��,2,�k,9.7,90.7,0,0,0,0,0,0,1011.2,1025.4
2022-10-31T00:47:00+09:00,0.8,�k��,2,�k,9.6,90.5,0,0,0,0,0,0,1011.2,1025.4
2022-10-31T00:48:00+09:00,0.8,�k��,2,�k,9.5,90.1,0,0,0,0,0,0,1011.2,1025.4
2022-10-31T00:49:00+09:00,0.7,�k��,2,�k,9.6,90.2,0,0,0,0,0,0,1011.2,1025.4
2022-10-31T00:50:00+09:00,0.7,�k��,2,�k,9.6,90.2,0,0,0,0,0,0,1011.2,1025.4
2022-10-31T00:51:00+09:00,0.6,�k�k��,2,�k,9.6,90.2,0,0,0,0,0,0,1011.2,1025.4
2022-10-31T00:52:00+09:00,0.6,�k�k��,2,�k,9.6,90.4,0,0,0,0,0,0,1011.2,1025.4
2022-10-31T00:53:00+09:00,0.7,�k�k��,2,�k,9.7,90.6,0,0,0,0,0,0,1011.2,1025.4
2022-10-31T00:54:00+09:00,0.6,�k�k��,1.6,�k��,9.7,90.6,0,0,0,0,0,0,1011.2,1025.4
2022-10-31T00:55:00+09:00,0.5,�k�k��,1.4,�k,9.8,90.6,0,0,0,0,0,0,1011.2,1025.4
2022-10-31T00:56:00+09:00,0.5,�k�k��,1.4,�k,9.8,90.6,0,0,0,0,0,0,1011.2,1025.4
2022-10-31T00:57:00+09:00,0.5,�k�k��,1.4,�k,9.7,90.4,0,0,0,0,0,0,1011.2,1025.4
2022-10-31T00:58:00+09:00,0.5,�k�k��,1.4,�k,9.7,90.3,0,0,0,0,0,0,1011.2,1025.4
2022-10-31T00:59:00+09:00,0.5,�k�k��,1.4,�k,9.7,90.1,0,0,0,0,0,0,1011.2,1025.4
2022-10-31T01:00:00+09:00,0.5,�k�k��,1.4,�k,9.7,89.9,0,0,0,0,0,0,1011.2,1025.4
2022-10-31T01:01:00+09:00,0.6,�k�k��,1.4,�k,9.7,90.1,0,0,0,0,0,0,1011.2,1025.4
2022-10-31T01:02:00+09:00,0.6,�k��,1.4,�k,9.8,90.2,0,0,0,0,0,0,1011.2,1025.4
2022-10-31T01:03:00+09:00,0.6,�k��,1.2,���k��,9.6,89.8,0,0,0,0,0,0,1011.2,1025.4
2022-10-31T01:04:00+09:00,0.6,�k��,1.2,���k��,9.7,90,0,0,0,0,0,0,1011.2,1025.4
2022-10-31T01:05:00+09:00,0.6,�k��,1.2,���k��,9.9,90.4,0,0,0,0,0,0,1011.2,1025.4
2022-10-31T01:06:00+09:00,0.6,�k��,1.3,���k��,10,90.5,0,0,0,0,0,0,1011.2,1025.4
2022-10-31T01:07:00+09:00,0.7,�k��,1.5,���k��,10.1,90.7,0,0,0,0,0,0,1011.3,1025.5
2022-10-31T01:08:00+09:00,0.8,�k��,1.5,���k��,10,90.3,0,0,0,0,0,0,1011.2,1025.4
2022-10-31T01:09:00+09:00,0.8,�k��,1.5,���k��,9.8,89.5,0,0,0,0,0,0,1011.2,1025.4
2022-10-31T01:10:00+09:00,0.8,�k��,1.5,���k��,10,89.5,0,0,0,0,0,0,1011.2,1025.4
2022-10-31T01:11:00+09:00,0.8,�k��,1.5,���k��,10.1,89.9,0,0,0,0,0,0,1011.2,1025.4
2022-10-31T01:12:00+09:00,0.8,�k��,1.5,���k��,10,89.7,0,0,0,0,0,0,1011.2,1025.4
2022-10-31T01:13:00+09:00,0.9,�k��,1.6,���k��,10,89.3,0,0,0,0,0,0,1011.2,1025.4
2022-10-31T01:14:00+09:00,0.9,�k��,1.6,���k��,9.9,88.9,0,0,0,0,0,0,1011.2,1025.4
2022-10-31T01:15:00+09:00,0.9,�k��,1.6,���k��,9.8,88.6,0,0,0,0,0,0,1011.1,1025.3
2022-10-31T01:16:00+09:00,0.9,�k��,2.4,�k,9.9,88.8,0,0,0,0,0,0,1011.1,1025.3
2022-10-31T01:17:00+09:00,0.9,�k��,2.4,�k,9.9,89,0,0,0,0,0,0,1011.1,1025.3
2022-10-31T01:18:00+09:00,0.9,�k��,2.4,�k,10.1,89.3,0,0,0,0,0,0,1011.1,1025.3
2022-10-31T01:19:00+09:00,1,�k��,2.4,�k,10,89.1,0,0,0,0,0,0,1011.1,1025.3
2022-10-31T01:20:00+09:00,1,�k��,2.4,�k,9.9,88.8,0,0,0,0,0,0,1011.1,1025.3
2022-10-31T01:21:00+09:00,1.1,�k��,2.4,�k,9.9,88.8,0,0,0,0,0,0,1011.1,1025.3
2022-10-31T01:22:00+09:00,1.1,�k��,2.4,�k,9.8,88.6,0,0,0,0,0,0,1011.1,1025.3
2022-10-31T01:23:00+09:00,1,�k��,2.4,�k,9.8,88.5,0,0,0,0,0,0,1011.1,1025.3
2022-10-31T01:24:00+09:00,1,�k��,2.4,�k,9.6,88.5,0,0,0,0,0,0,1011.1,1025.3
2022-10-31T01:25:00+09:00,1,�k��,2.4,�k,9.7,88.6,0,0,0,0,0,0,1011.1,1025.3
2022-10-31T01:26:00+09:00,0.9,�k��,1.9,�k,9.6,88.9,0,0,0,0,0,0,1011.1,1025.3
2022-10-31T01:27:00+09:00,0.9,�k��,1.9,�k,9.7,89.3,0,0,0,0,0,0,1011.1,1025.3
2022-10-31T01:28:00+09:00,0.9,�k��,1.9,�k,9.7,89.6,0,0,0,0,0,0,1011.1,1025.3
2022-10-31T01:29:00+09:00,0.9,�k��,1.8,�k��,9.8,89.9,0,0,0,0,0,0,1011.2,1025.4
2022-10-31T01:30:00+09:00,0.8,�k��,1.8,�k��,9.8,89.9,0,0,0,0,0,0,1011.2,1025.4
2022-10-31T01:31:00+09:00,0.8,�k��,1.6,�k��,9.8,90,0,0,0,0,0,0,1011.1,1025.3
2022-10-31T01:32:00+09:00,0.8,�k��,1.6,�k��,9.8,90,0,0,0,0,0,0,1011.2,1025.4
2022-10-31T01:33:00+09:00,0.8,�k��,1.6,�k��,9.9,90.3,0,0,0,0,0,0,1011.1,1025.3
2022-10-31T01:34:00+09:00,0.8,�k��,1.6,�k��,9.9,90.1,0,0,0,0,0,0,1011.1,1025.3
2022-10-31T01:35:00+09:00,0.8,�k��,1.6,�k��,9.9,89.7,0,0,0,0,0,0,1011.1,1025.3
2022-10-31T01:36:00+09:00,0.8,�k�k��,1.6,�k��,9.9,89.8,0,0,0,0,0,0,1011.1,1025.3
2022-10-31T01:37:00+09:00,0.8,�k�k��,1.7,�k,10,89.8,0,0,0,0,0,0,1011.1,1025.3
2022-10-31T01:38:00+09:00,0.9,�k�k��,2.1,�k�k��,10,89.6,0,0,0,0,0,0,1011.1,1025.3
2022-10-31T01:39:00+09:00,0.9,�k�k��,2.4,�k,10.2,89.7,0,0,0,0,0,0,1011.2,1025.4
2022-10-31T01:40:00+09:00,0.9,�k�k��,2.4,�k,10.1,89.3,0,0,0,0,0,0,1011.2,1025.4
2022-10-31T01:41:00+09:00,0.9,�k�k��,2.4,�k,10,88.8,0,0,0,0,0,0,1011.1,1025.3
2022-10-31T01:42:00+09:00,1,�k,2.4,�k,10.1,88.8,0,0,0,0,0,0,1011.1,1025.3
2022-10-31T01:43:00+09:00,1,�k,2.4,�k,10.1,88.9,0,0,0,0,0,0,1011.1,1025.3
2022-10-31T01:44:00+09:00,1.1,�k,2.4,�k,10.2,89,0,0,0,0,0,0,1011.1,1025.3
2022-10-31T01:45:00+09:00,1.2,�k,2.5,�k�k��,10.2,89.1,0,0,0,0,0,0,1011.2,1025.4
2022-10-31T01:46:00+09:00,1.3,�k,2.5,�k�k��,10.2,89,0,0,0,0,0,0,1011.2,1025.4
2022-10-31T01:47:00+09:00,1.4,�k�k��,2.5,�k�k��,10.2,88.4,0,0,0,0,0,0,1011.2,1025.4
2022-10-31T01:48:00+09:00,1.4,�k�k��,2.5,�k�k��,10.2,88.3,0,0,0,0,0,0,1011.1,1025.3
2022-10-31T01:49:00+09:00,1.4,�k,2.5,�k�k��,10.4,88.6,0,0,0,0,0,0,1011.1,1025.3
2022-10-31T01:50:00+09:00,1.4,�k�k��,2.5,�k�k��,10.3,88.5,0,0,0,0,0,0,1011.1,1025.3
2022-10-31T01:51:00+09:00,1.5,�k,2.5,�k�k��,10.3,88.2,0,0,0,0,0,0,1011.1,1025.3
2022-10-31T01:52:00+09:00,1.4,�k,2.5,�k�k��,10.3,88,0,0,0,0,0,0,1011.1,1025.3
2022-10-31T01:53:00+09:00,1.4,�k,2.5,�k�k��,10.2,87.9,0,0,0,0,0,0,1011.1,1025.3
2022-10-31T01:54:00+09:00,1.4,�k,2.5,�k�k��,10.1,87.6,0,0,0,0,0,0,1011.1,1025.3
2022-10-31T01:55:00+09:00,1.3,�k�k��,2.4,�k�k��,10.1,87.8,0,0,0,0,0,0,1011,1025.2
2022-10-31T01:56:00+09:00,1.3,�k�k��,2.4,�k�k��,10.3,88.3,0,0,0,0,0,0,1011.1,1025.3
2022-10-31T01:57:00+09:00,1.1,�k�k��,2.4,�k�k��,10.3,88.4,0,0,0,0,0,0,1011.1,1025.3
2022-10-31T01:58:00+09:00,1.1,�k�k��,2.2,�k�k��,10.2,88.3,0,0,0,0,0,0,1011.1,1025.3
2022-10-31T01:59:00+09:00,1.1,�k�k��,2,�k��,10.2,87.9,0,0,0,0,0,0,1011.1,1025.3
2022-10-31T02:00:00+09:00,1.1,�k��,2,�k��,10.2,87.9,0,0,0,0,0,0,1011.1,1025.3
2022-10-31T02:01:00+09:00,1,�k��,2,�k��,10.2,87.9,0,0,0,0,0,0,1011.1,1025.3
2022-10-31T02:02:00+09:00,1,�k�k��,2,�k��,10.2,88.1,0,0,0,0,0,0,1011.1,1025.3
2022-10-31T02:03:00+09:00,0.9,�k�k��,2,�k��,10.2,88.1,0,0,0,0,0,0,1011.1,1025.3
2022-10-31T02:04:00+09:00,0.9,�k�k��,2,�k��,10.4,88.6,0,0,0,0,0,0,1011.1,1025.3
2022-10-31T02:05:00+09:00,0.9,�k�k��,2,�k��,10.4,88.6,0,0,0,0,0,0,1011.1,1025.3
2022-10-31T02:06:00+09:00,0.8,�k�k��,2,�k��,10.5,88.5,0,0,0,0,0,0,1011.1,1025.3
2022-10-31T02:07:00+09:00,0.8,�k�k��,2,�k��,10.5,88.5,0,0,0,0,0,0,1011.1,1025.3
2022-10-31T02:08:00+09:00,0.8,�k�k��,2,�k��,10.3,87.5,0,0,0,0,0,0,1011.2,1025.4
2022-10-31T02:09:00+09:00,0.8,�k�k��,2,�k�k��,10.4,87.4,0,0,0,0,0,0,1011.2,1025.4
2022-10-31T02:10:00+09:00,0.8,�k,2,�k�k��,10.5,87.7,0,0,0,0,0,0,1011.2,1025.4
2022-10-31T02:11:00+09:00,0.8,�k,2,�k�k��,10.4,87.5,0,0,0,0,0,0,1011.1,1025.3
2022-10-31T02:12:00+09:00,0.9,�k,2,�k�k��,10.5,87.5,0,0,0,0,0,0,1011.1,1025.3
2022-10-31T02:13:00+09:00,0.9,�k,2,�k�k��,10.6,87.7,0,0,0,0,0,0,1011.1,1025.3
2022-10-31T02:14:00+09:00,0.9,�k,2,�k��,10.6,87.5,0,0,0,0,0,0,1011.2,1025.4
2022-10-31T02:15:00+09:00,0.9,�k,2,�k��,10.7,87.4,0,0,0,0,0,0,1011.2,1025.4
2022-10-31T02:16:00+09:00,0.9,�k,2,�k��,10.8,87.2,0,0,0,0,0,0,1011.2,1025.4
2022-10-31T02:17:00+09:00,0.9,�k,2,�k��,10.7,86.8,0,0,0,0,0,0,1011.2,1025.4
2022-10-31T02:18:00+09:00,0.9,�k,2,�k��,10.7,86.3,0,0,0,0,0,0,1011.2,1025.4
2022-10-31T02:19:00+09:00,1,�k�k��,2,�k��,10.7,86.2,0,0,0,0,0,0,1011.2,1025.4
2022-10-31T02:20:00+09:00,1,�k�k��,2,�k��,10.8,86.4,0,0,0,0,0,0,1011.2,1025.4
2022-10-31T02:21:00+09:00,1,�k�k��,1.9,�k�k��,10.8,86.1,0,0,0,0,0,0,1011.2,1025.4
2022-10-31T02:22:00+09:00,1,�k�k��,1.9,�k�k��,10.8,85.9,0,0,0,0,0,0,1011.2,1025.4
2022-10-31T02:23:00+09:00,0.9,�k�k��,1.9,�k�k��,10.8,85.4,0,0,0,0,0,0,1011.1,1025.3
2022-10-31T02:24:00+09:00,0.9,�k�k��,1.9,�k�k��,10.9,85.4,0,0,0,0,0,0,1011.2,1025.4
2022-10-31T02:25:00+09:00,0.8,�k��,1.9,�k�k��,10.8,84.9,0,0,0,0,0,0,1011.2,1025.4
2022-10-31T02:26:00+09:00,0.8,�k��,1.9,�k�k��,10.9,84.8,0,0,0,0,0,0,1011.2,1025.4
2022-10-31T02:27:00+09:00,0.7,�k��,1.9,�k�k��,10.7,84.5,0,0,0,0,0,0,1011.2,1025.4
2022-10-31T02:28:00+09:00,0.8,�k��,2,��쐼,10.2,83.3,0,0,0,0,0,0,1011.2,1025.4
2022-10-31T02:29:00+09:00,0.7,���k��,2.1,��쐼,9.9,83.3,0,0,0,0,0,0,1011.2,1025.4
2022-10-31T02:30:00+09:00,0.7,���k��,2.1,��쐼,9.7,84.1,0,0,0,0,0,0,1011.2,1025.4
2022-10-31T02:31:00+09:00,0.7,���쓌,2.1,��쐼,9.6,85.2,0,0,0,0,0,0,1011.2,1025.4
2022-10-31T02:32:00+09:00,0.7,��쓌,2.1,��쐼,9.6,86.3,0,0,0,0,0,0,1011.2,1025.4
2022-10-31T02:33:00+09:00,0.8,��,2.1,��쐼,9.7,87.4,0,0,0,0,0,0,1011.2,1025.4
2022-10-31T02:34:00+09:00,0.8,��쐼,2.1,��쐼,9.9,88.7,0,0,0,0,0,0,1011.2,1025.4
2022-10-31T02:35:00+09:00,0.9,��쐼,2.1,��쐼,9.9,88.9,0,0,0,0,0,0,1011.2,1025.4
2022-10-31T02:36:00+09:00,0.9,��쐼,2.1,��쐼,9.9,89.1,0,0,0,0,0,0,1011.1,1025.3
2022-10-31T02:37:00+09:00,1,��쐼,2.1,��쐼,9.9,89,0,0,0,0,0,0,1011.2,1025.4
2022-10-31T02:38:00+09:00,1,�쐼,2.1,��쐼,10.2,89.7,0,0,0,0,0,0,1011.2,1025.4
2022-10-31T02:39:00+09:00,0.8,�쐼,1.9,��쐼,10.1,89.7,0,0,0,0,0,0,1011.2,1025.4
2022-10-31T02:40:00+09:00,0.7,�쐼,1.8,�쐼,10.2,89.6,0,0,0,0,0,0,1011.2,1025.4
2022-10-31T02:41:00+09:00,0.6,�쐼,1.5,��쐼,10.4,89.5,0,0,0,0,0,0,1011.1,1025.3
2022-10-31T02:42:00+09:00,0.6,�쐼,1.5,��쐼,10.6,89.9,0,0,0,0,0,0,1011.1,1025.3
2022-10-31T02:43:00+09:00,0.5,��쐼,1.4,��쐼,10.5,89,0,0,0,0,0,0,1011.2,1025.4
2022-10-31T02:44:00+09:00,0.4,��쐼,1.4,��쐼,10.6,88.4,0,0,0,0,0,0,1011.2,1025.4
2022-10-31T02:45:00+09:00,0.3,��쐼,1.4,��쐼,10.5,87.7,0,0,0,0,0,0,1011.2,1025.4
2022-10-31T02:46:00+09:00,0.3,��쐼,1.4,��쐼,10.3,87,0,0,0,0,0,0,1011.2,1025.4
2022-10-31T02:47:00+09:00,0.2,�É�,1.3,�쐼,10.3,86.9,0,0,0,0,0,0,1011.1,1025.3
2022-10-31T02:48:00+09:00,0.2,�É�,0.9,�쐼,10.3,87.1,0,0,0,0,0,0,1011.2,1025.4
2022-10-31T02:49:00+09:00,0.2,�É�,0.9,�쐼,9.9,86.3,0,0,0,0,0,0,1011.2,1025.4
2022-10-31T02:50:00+09:00,0.2,�É�,0.9,�쐼,10,86.7,0,0,0,0,0,0,1011.2,1025.4
2022-10-31T02:51:00+09:00,0.2,�É�,0.9,�쐼,10.3,88,0,0,0,0,0,0,1011.1,1025.3
2022-10-31T02:52:00+09:00,0.2,�É�,0.9,�쐼,10.3,88.4,0,0,0,0,0,0,1011.1,1025.3
2022-10-31T02:53:00+09:00,0.2,�É�,0.9,�쐼,10.1,87.9,0,0,0,0,0,0,1011.2,1025.4
2022-10-31T02:54:00+09:00,0.2,�É�,0.9,�쐼,10.1,87.9,0,0,0,0,0,0,1011.1,1025.3
2022-10-31T02:55:00+09:00,0.2,�É�,0.9,�쐼,10.3,88.8,0,0,0,0,0,0,1011.2,1025.4
2022-10-31T02:56:00+09:00,0.2,�É�,0.9,�쐼,10.4,89,0,0,0,0,0,0,1011.2,1025.4
2022-10-31T02:57:00+09:00,0.2,�É�,1,�k��,10.4,88.9,0,0,0,0,0,0,1011.1,1025.3
2022-10-31T02:58:00+09:00,0.2,�É�,1.2,��,10.5,89,0,0,0,0,0,0,1011.1,1025.3
2022-10-31T02:59:00+09:00,0.3,�k,1.2,��,10.4,88.8,0,0,0,0,0,0,1011.1,1025.3
2022-10-31T03:00:00+09:00,0.4,�k�k��,1.2,��,10.4,88.4,0,0,0,0,0,0,1011.1,1025.3
2022-10-31T03:01:00+09:00,0.5,�k��,1.2,��,10.4,88.6,0,0,0,0,0,0,1011.1,1025.3
2022-10-31T03:02:00+09:00,0.6,�k��,1.2,��,10.7,89.2,0,0,0,0,0,0,1011.1,1025.3
2022-10-31T03:03:00+09:00,0.7,�k��,1.5,���k��,10.6,88.7,0,0,0,0,0,0,1011.1,1025.3
2022-10-31T03:04:00+09:00,0.8,���k��,1.5,���k��,10.5,88.1,0,0,0,0,0,0,1011.1,1025.3
2022-10-31T03:05:00+09:00,0.9,���k��,1.5,���k��,10.4,87.5,0,0,0,0,0,0,1011.1,1025.3
2022-10-31T03:06:00+09:00,1,���k��,1.6,��,10.4,87.6,0,0,0,0,0,0,1011.1,1025.3
2022-10-31T03:07:00+09:00,1.1,��,2.2,��,10.4,87.5,0,0,0,0,0,0,1011.1,1025.3
2022-10-31T03:08:00+09:00,1.2,��,2.2,��,10.4,87.6,0,0,0,0,0,0,1011.1,1025.3
2022-10-31T03:09:00+09:00,1.2,���k��,2.2,��,10.4,87.6,0,0,0,0,0,0,1011.1,1025.3
2022-10-31T03:10:00+09:00,1.2,���k��,2.2,��,10.5,88.1,0,0,0,0,0,0,1011.1,1025.3
2022-10-31T03:11:00+09:00,1.2,���k��,2.2,��,10.7,87.9,0,0,0,0,0,0,1011.1,1025.3
2022-10-31T03:12:00+09:00,1.2,���k��,2.2,��,10.7,87.7,0,0,0,0,0,0,1011.1,1025.3
2022-10-31T03:13:00+09:00,1.2,���k��,2.2,��,10.8,87.7,0,0,0,0,0,0,1011.1,1025.3
2022-10-31T03:14:00+09:00,1.2,���k��,2.2,��,11,87.7,0,0,0,0,0,0,1011.1,1025.3
2022-10-31T03:15:00+09:00,1.2,���k��,2.2,��,10.9,86.9,0,0,0,0,0,0,1011.1,1025.3
2022-10-31T03:16:00+09:00,1.1,���k��,2.2,��,10.8,86.1,0,0,0,0,0,0,1011.1,1025.3
2022-10-31T03:17:00+09:00,1,�k��,2.2,��,10.8,85.8,0,0,0,0,0,0,1011.1,1025.3
2022-10-31T03:18:00+09:00,0.9,�k��,2,��,10.7,85.4,0,0,0,0,0,0,1011.1,1025.3
2022-10-31T03:19:00+09:00,0.8,�k��,1.8,���k��,10.9,86,0,0,0,0,0,0,1011.2,1025.4
2022-10-31T03:20:00+09:00,0.8,�k��,1.8,���k��,10.9,86.2,0,0,0,0,0,0,1011.2,1025.4
2022-10-31T03:21:00+09:00,0.8,�k��,1.8,���k��,10.8,86,0,0,0,0,0,0,1011.1,1025.3
2022-10-31T03:22:00+09:00,0.7,�k��,1.8,���k��,10.9,86.1,0,0,0,0,0,0,1011.1,1025.3
2022-10-31T03:23:00+09:00,0.7,�k��,1.8,���k��,10.9,86.3,0,0,0,0,0,0,1011.2,1025.4
2022-10-31T03:24:00+09:00,0.6,�k��,1.6,�k�k��,11,86.2,0,0,0,0,0,0,1011.1,1025.3
2022-10-31T03:25:00+09:00,0.6,�k�k��,1.6,�k�k��,11,86.2,0,0,0,0,0,0,1011.2,1025.4
2022-10-31T03:26:00+09:00,0.6,�k�k��,1.8,�k��,11.1,86.3,0,0,0,0,0,0,1011.2,1025.4
2022-10-31T03:27:00+09:00,0.7,�k�k��,1.8,�k��,11.1,86.4,0,0,0,0,0,0,1011.1,1025.3
2022-10-31T03:28:00+09:00,0.7,�k�k��,1.8,�k��,11.1,86.1,0,0,0,0,0,0,1011.1,1025.3
2022-10-31T03:29:00+09:00,0.6,�k�k��,1.8,�k��,11.1,86.2,0,0,0,0,0,0,1011.1,1025.3
2022-10-31T03:30:00+09:00,0.7,�k,2.1,�k�k��,11,86.1,0,0,0,0,0,0,1011.2,1025.4
2022-10-31T03:31:00+09:00,0.8,�k,2.1,�k�k��,11.3,86.4,0,0,0,0,0,0,1011.2,1025.4
2022-10-31T03:32:00+09:00,0.8,�k,2.1,�k�k��,11.2,86.5,0,0,0,0,0,0,1011.2,1025.4
2022-10-31T03:33:00+09:00,0.9,�k,2.1,�k�k��,11.4,86.4,0,0,0,0,0,0,1011.1,1025.3
2022-10-31T03:34:00+09:00,0.9,�k,2.1,�k�k��,11.2,85.8,0,0,0,0,0,0,1011.1,1025.3
2022-10-31T03:35:00+09:00,0.9,�k�k��,2.1,�k�k��,11.2,85.4,0,0,0,0,0,0,1011.1,1025.3
2022-10-31T03:36:00+09:00,1,�k�k��,2.1,�k�k��,11.2,85.6,0,0,0,0,0,0,1011.1,1025.3
2022-10-31T03:37:00+09:00,1,�k�k��,2.1,�k�k��,11.3,85.9,0,0,0,0,0,0,1011.1,1025.3
2022-10-31T03:38:00+09:00,1,�k�k��,2.1,�k�k��,11.2,85.7,0,0,0,0,0,0,1011.1,1025.3
2022-10-31T03:39:00+09:00,1,�k�k��,2.1,�k�k��,11.3,85.7,0,0,0,0,0,0,1011.1,1025.3
2022-10-31T03:40:00+09:00,1,�k�k��,2,�k,11.3,85.8,0,0,0,0,0,0,1011.1,1025.3
2022-10-31T03:41:00+09:00,1,�k�k��,2,�k,11.3,85.7,0,0,0,0,0,0,1011.2,1025.4
2022-10-31T03:42:00+09:00,0.9,�k�k��,2,�k,11.3,85.8,0,0,0,0,0,0,1011.2,1025.4
2022-10-31T03:43:00+09:00,0.8,�k�k��,1.9,�k��,11.3,86,0,0,0,0,0,0,1011.2,1025.4
2022-10-31T03:44:00+09:00,0.8,�k,1.9,�k��,11.3,85.6,0,0,0,0,0,0,1011.2,1025.4
2022-10-31T03:45:00+09:00,0.8,�k,1.9,�k��,11.3,85.6,0,0,0,0,0,0,1011.2,1025.4
2022-10-31T03:46:00+09:00,0.8,�k,2.1,�k,11.4,85.8,0,0,0,0,0,0,1011.2,1025.4
2022-10-31T03:47:00+09:00,0.8,�k,2.2,�k��,11.3,85.5,0,0,0,0,0,0,1011.2,1025.4
2022-10-31T03:48:00+09:00,0.8,�k,2.2,�k��,11.3,85.3,0,0,0,0,0,0,1011.2,1025.4
2022-10-31T03:49:00+09:00,1,�k,2.2,�k��,11.5,85.7,0,0,0,0,0,0,1011.2,1025.3
2022-10-31T03:50:00+09:00,1,�k,2.2,�k��,11.4,85.4,0,0,0,0,0,0,1011.2,1025.4
2022-10-31T03:51:00+09:00,1,�k�k��,2.2,�k��,11.5,85.4,0,0,0,0,0,0,1011.2,1025.3
2022-10-31T03:52:00+09:00,1.2,�k�k��,2.5,�k��,11.5,85.2,0,0,0,0,0,0,1011.2,1025.3
2022-10-31T03:53:00+09:00,1.4,�k�k��,3,�k��,11.6,85.1,0,0,0,0,0,0,1011.2,1025.3
2022-10-31T03:54:00+09:00,1.4,�k�k��,3,�k��,11.7,84.8,0,0,0,0,0,0,1011.2,1025.3
2022-10-31T03:55:00+09:00,1.5,�k�k��,3,�k��,11.5,83.9,0,0,0,0,0,0,1011.2,1025.3
2022-10-31T03:56:00+09:00,1.5,�k�k��,3,�k��,11.5,83.7,0,0,0,0,0,0,1011.2,1025.3
2022-10-31T03:57:00+09:00,1.6,�k��,3,�k��,11.6,84.1,0,0,0,0,0,0,1011.3,1025.4
2022-10-31T03:58:00+09:00,1.7,�k��,3,�k��,11.7,84.1,0,0,0,0,0,0,1011.3,1025.4
2022-10-31T03:59:00+09:00,1.7,�k��,3,�k��,11.8,84.2,0,0,0,0,0,0,1011.3,1025.4
2022-10-31T04:00:00+09:00,1.7,�k��,3,�k��,11.7,83.3,0,0,0,0,0,0,1011.3,1025.4
2022-10-31T04:01:00+09:00,1.7,�k��,3,�k��,11.6,82.8,0,0,0,0,0,0,1011.3,1025.4
2022-10-31T04:02:00+09:00,1.7,�k�k��,3,�k��,11.6,82.7,0,0,0,0,0,0,1011.3,1025.4
2022-10-31T04:03:00+09:00,1.5,�k�k��,2.5,�k�k��,11.6,82.7,0,0,0,0,0,0,1011.3,1025.4
2022-10-31T04:04:00+09:00,1.5,�k�k��,2.5,�k�k��,11.6,82.7,0,0,0,0,0,0,1011.3,1025.4
2022-10-31T04:05:00+09:00,1.4,�k�k��,2.5,�k�k��,11.6,82.9,0,0,0,0,0,0,1011.3,1025.4
2022-10-31T04:06:00+09:00,1.2,�k,2.5,�k�k��,11.6,82.9,0,0,0,0,0,0,1011.3,1025.4
2022-10-31T04:07:00+09:00,1.2,�k,2.5,�k�k��,11.5,83,0,0,0,0,0,0,1011.2,1025.3
2022-10-31T04:08:00+09:00,1.1,�k,2.5,�k�k��,11.4,83,0,0,0,0,0,0,1011.3,1025.5
2022-10-31T04:09:00+09:00,1,�k,2.5,�k�k��,11.4,83.4,0,0,0,0,0,0,1011.2,1025.4
2022-10-31T04:10:00+09:00,1,�k,2.5,�k�k��,11.5,83.8,0,0,0,0,0,0,1011.2,1025.3
2022-10-31T04:11:00+09:00,1,�k,2.3,�k�k��,11.5,83.9,0,0,0,0,0,0,1011.2,1025.3
2022-10-31T04:12:00+09:00,0.9,�k,2,�k�k��,11.6,84.2,0,0,0,0,0,0,1011.3,1025.4
2022-10-31T04:13:00+09:00,0.9,�k,2,�k�k��,11.6,84.3,0,0,0,0,0,0,1011.2,1025.3
2022-10-31T04:14:00+09:00,0.9,�k,2,�k�k��,11.6,84.2,0,0,0,0,0,0,1011.2,1025.3
2022-10-31T04:15:00+09:00,1,�k,2.4,�k��,11.6,84.1,0,0,0,0,0,0,1011.2,1025.3
2022-10-31T04:16:00+09:00,1.1,�k�k��,2.4,�k��,11.7,84.2,0,0,0,0,0,0,1011.2,1025.3
2022-10-31T04:17:00+09:00,1.1,�k�k��,2.4,�k��,11.8,84.5,0,0,0,0,0,0,1011.3,1025.4
2022-10-31T04:18:00+09:00,1.2,�k�k��,2.4,�k��,11.7,84.1,0,0,0,0,0,0,1011.2,1025.3
2022-10-31T04:19:00+09:00,1.2,�k�k��,2.4,�k��,11.6,83.7,0,0,0,0,0,0,1011.2,1025.3
2022-10-31T04:20:00+09:00,1.2,�k�k��,2.4,�k��,11.6,83.8,0,0,0,0,0,0,1011.2,1025.3
2022-10-31T04:21:00+09:00,1.2,�k�k��,2.4,�k��,11.5,83.9,0,0,0,0,0,0,1011.2,1025.3
2022-10-31T04:22:00+09:00,1.3,�k�k��,2.4,�k��,11.4,84,0,0,0,0,0,0,1011.2,1025.4
2022-10-31T04:23:00+09:00,1.4,�k�k��,2.4,�k��,11.4,84.3,0,0,0,0,0,0,1011.2,1025.4
2022-10-31T04:24:00+09:00,1.5,�k�k��,2.4,�k��,11.6,85.1,0,0,0,0,0,0,1011.2,1025.3
2022-10-31T04:25:00+09:00,1.5,�k�k��,2.3,�k�k��,11.6,85.4,0,0,0,0,0,0,1011.2,1025.3
2022-10-31T04:26:00+09:00,1.4,�k�k��,2.3,�k�k��,11.5,84.8,0,0,0,0,0,0,1011.3,1025.4
2022-10-31T04:27:00+09:00,1.3,�k�k��,2.2,�k�k��,11.6,84.8,0,0,0,0,0,0,1011.3,1025.4
2022-10-31T04:28:00+09:00,1.2,�k�k��,2.2,�k�k��,11.5,84.9,0,0,0,0,0,0,1011.3,1025.4
2022-10-31T04:29:00+09:00,1.1,�k,2.2,�k�k��,11.5,84.9,0,0,0,0,0,0,1011.3,1025.4
2022-10-31T04:30:00+09:00,1.1,�k,2.2,�k�k��,11.5,85,0,0,0,0,0,0,1011.3,1025.4
2022-10-31T04:31:00+09:00,1,�k,2.2,�k�k��,11.6,85.1,0,0,0,0,0,0,1011.3,1025.4
2022-10-31T04:32:00+09:00,0.9,�k,2.2,�k�k��,11.6,85.2,0,0,0,0,0,0,1011.3,1025.4
2022-10-31T04:33:00+09:00,0.8,�k,2.1,�k,11.5,84.8,0,0,0,0,0,0,1011.3,1025.4
2022-10-31T04:34:00+09:00,0.7,�k,1.8,�k�k��,11.5,84.9,0,0,0,0,0,0,1011.3,1025.4
2022-10-31T04:35:00+09:00,0.7,�k,1.8,�k�k��,11.5,85,0,0,0,0,0,0,1011.3,1025.4
2022-10-31T04:36:00+09:00,0.7,�k,1.8,�k�k��,11.3,84.6,0,0,0,0,0,0,1011.3,1025.5
2022-10-31T04:37:00+09:00,0.7,�k,1.8,�k�k��,11.5,85.2,0,0,0,0,0,0,1011.4,1025.6
2022-10-31T04:38:00+09:00,0.7,�k,1.8,�k�k��,11.5,85.5,0,0,0,0,0,0,1011.4,1025.6
2022-10-31T04:39:00+09:00,0.6,�k,1.8,�k�k��,11.5,85.5,0,0,0,0,0,0,1011.4,1025.6
2022-10-31T04:40:00+09:00,0.5,�k,1.5,�k�k��,11.5,85.3,0,0,0,0,0,0,1011.4,1025.6
2022-10-31T04:41:00+09:00,0.5,�k,1.5,�k�k��,11.5,85.1,0,0,0,0,0,0,1011.3,1025.4
2022-10-31T04:42:00+09:00,0.5,�k,1.5,�k�k��,11.4,84.9,0,0,0,0,0,0,1011.4,1025.6
2022-10-31T04:43:00+09:00,0.4,�k,1.5,�k�k��,11.4,85,0,0,0,0,0,0,1011.4,1025.6
2022-10-31T04:44:00+09:00,0.4,�k�k��,1.5,�k�k��,11.5,85.1,0,0,0,0,0,0,1011.4,1025.6
2022-10-31T04:45:00+09:00,0.3,�k�k��,1.5,�k�k��,11.4,85.1,0,0,0,0,0,0,1011.4,1025.6
2022-10-31T04:46:00+09:00,0.3,�k�k��,1.4,�k�k��,11.4,85.2,0,0,0,0,0,0,1011.4,1025.6
2022-10-31T04:47:00+09:00,0.3,�k�k��,0.9,�k�k��,11.4,85.1,0,0,0,0,0,0,1011.4,1025.6
2022-10-31T04:48:00+09:00,0.3,�k�k��,0.9,�k�k��,11.4,85.4,0,0,0,0,0,0,1011.4,1025.6
2022-10-31T04:49:00+09:00,0.3,�k�k��,1,�k�k��,11.5,85.7,0,0,0,0,0,0,1011.4,1025.6
2022-10-31T04:50:00+09:00,0.3,�k�k��,1,�k�k��,11.4,85.6,0,0,0,0,0,0,1011.5,1025.7
2022-10-31T04:51:00+09:00,0.3,�k,1,�k�k��,11.4,85.4,0,0,0,0,0,0,1011.5,1025.7
2022-10-31T04:52:00+09:00,0.4,�k,1,�k�k��,11.4,85.5,0,0,0,0,0,0,1011.4,1025.6
2022-10-31T04:53:00+09:00,0.4,�k,1,�k�k��,11.4,85.8,0,0,0,0,0,0,1011.5,1025.7
2022-10-31T04:54:00+09:00,0.4,�k,1,�k�k��,11.5,85.9,0,0,0,0,0,0,1011.5,1025.7
2022-10-31T04:55:00+09:00,0.4,�k,1,�k�k��,11.5,86,0,0,0,0,0,0,1011.5,1025.7
2022-10-31T04:56:00+09:00,0.3,�k,1,�k�k��,11.4,85.5,0,0,0,0,0,0,1011.5,1025.7
2022-10-31T04:57:00+09:00,0.3,�k,1,�k�k��,11.2,85,0,0,0,0,0,0,1011.5,1025.7
2022-10-31T04:58:00+09:00,0.3,�k�k��,1,�k�k��,11.2,85.4,0,0,0,0,0,0,1011.5,1025.7
2022-10-31T04:59:00+09:00,0.3,�k�k��,1,�k,11.2,86.1,0,0,0,0,0,0,1011.4,1025.6